www.pogodaiklimat.ru

Погода и климат >> Архив погоды >> Китай >> Ляонин >> Далянь


ПОГОДА в Даляне

  • Прогноз погоды в Даляне
  • Монитор погоды в Даляне

АРХИВ ПОГОДЫ в Даляне

Время (UTC), дата Ветер
(напр.,м/с)
 
Видим.   Явления Облачность Т
(С)
Тd
(С)
f
(%)
Тe
(С)
Тes
(С)
Комфортность P
(гПа)
Po
(гПа)
Тmin
(С)
Tmax
(С)
R
(мм)
R24
(мм)
S
(см)
21 9.01 З 1 25 км н/о -1.0 -7.8 60 -3 -3 1025.1 1025.0
00 10.01 З 3 22 км ясно -0.3 -8.0 56 -4 -4 1025.1 1013.3
03 10.01 СЗ 4 14 км 4/4 1000 м
[]
+2.5 -4.7 59 -2 0 1024.7 1025.0
06 10.01 З 4 11 км 9/9
[]
+3.4 -4.8 55 -1 -0 1023.6 1011.9 -1.1
09 10.01 З 1 6000 м мгла ясно +1.0 -3.9 70 -1 -1 1024.7 1025.0
12 10.01 штиль 0 н/о дымка ясно +0.2 -3.0 79 -1 -1 1025.6 1013.8
15 10.01 Ю 1 4800 м дымка н/о -1.0 -3.7 82 -3 -3 1026.4 1026.0
18 10.01 штиль 0 н/о дымка н/о -0.1 -3.0 81 -1 -1 1026.4 1014.7 +3.9
21 10.01 В 1 4600 м дымка н/о -0.1 -2.6 83 -2 -2 1025.9 1026.0
00 11.01 В 2 3200 м дымка ясно -0.6 -2.0 90 -4 -4 1026.2 1014.4
03 11.01 ЮВ 2 н/о дымка 10/10
[]
+2.0 -0.9 81 -1 -1 1026.1 1026.0
06 11.01 ЮВ 1 6000 м дымка 10/10
[]
+3.1 -0.7 76 +2 +2 1023.9 1012.2 -1.1
09 11.01 В 1 н/о дымка 10/10
[]
+2.6 -0.3 81 +1 +1 1024.0 1024.0
12 11.01 В 1 н/о дымка 10/10
[]
+2.2 +0.1 86 +1 +1 1023.5 1011.8
15 11.01 СВ 1 н/о дымка н/о +2.2 +0.4 88 +1 +1 1022.8 1023.0
18 11.01 штиль 0 4600 м дымка н/о +1.8 0.0 88 +1 +1 1023.3 1011.6 +3.2
21 11.01 С 2 2500 м дымка н/о +1.2 -1.2 84 -2 -2 1023.0 1023.0
00 12.01 ЮВ 1 2600 м дымка 6/6
[]
0.0 -2.1 86 -2 -2 1024.1 1012.4
03 12.01 З 1 4200 м мгла ясно +3.8 -2.2 65 +3 +9 1024.0 1024.0
06 12.01 С 2 4900 м мгла 9/9
[]
+5.2 -2.9 56 +3 +3 1023.4 1011.8 -0.1
09 12.01 З 2 3600 м дымка ясно +2.3 -1.9 74 -1 -1 1024.2 1024.0
12 12.01 ЮЗ 2 2800 м дымка ясно +0.3 -2.2 83 -3 -3 1024.9 1013.1
15 12.01 ЮЗ 2 2600 м дымка н/о +0.3 -1.8 86 -3 -3 1025.6 1026.0
18 12.01 З 1 2700 м дымка н/о +0.3 -1.8 86 -2 -2 1025.9 1014.2 +5.7
21 12.01 З 1 2100 м дымка н/о +0.6 -1.6 85 -1 -1 1025.0 1025.0
00 13.01 СЗ 1 1800 м дымка 9/9
[]
+0.8 -1.6 84 -1 -1 1026.0 1014.2
03 13.01 З 2 2000 м дымка 9/9
[]
+1.8 -2.0 76 -1 -1 1026.3 1026.0
06 13.01 С 2 2200 м дымка 9/9
[]
+2.4 -2.5 70 -1 -0 1025.3 1013.6 0.0
09 13.01 С 3 1700 м дымка 9/9
[]
+0.6 -2.8 78 -4 -4 1026.6 1027.0
12 13.01 С 1 4200 м мгла ясно -0.8 -6.0 68 -3 -3 1027.5 1015.7
15 13.01 С 3 4800 м мгла н/о -1.7 -8.9 58 -6 -6 1028.2 1028.0
18 13.01 С 4 7000 м мгла н/о -2.3 -8.4 63 -8 -8 1028.5 1016.7 +2.9
21 13.01 С 2 18 км н/о -2.9 -10.9 54 -6 -6 1027.8 1028.0
00 14.01 штиль 0 23 км 6/6
[]
-2.4 -11.7 49 -3 -3 1027.9 1016.0
03 14.01 С 1 28 км 9/9
[]
+0.9 -12.8 35 0 +1 1027.6 1028.0
06 14.01 Ю 2 24 км 3/3
[]
+4.2 -9.9 35 +2 +5 1025.1 1013.4 -2.9
09 14.01 ЮЗ 1 23 км ясно +2.5 -7.1 49 +2 +2 1024.6 1025.0
12 14.01 З 2 8000 м ясно +1.0 -2.6 77 -2 -2 1024.7 1012.9
15 14.01 З 4 12 км н/о +1.4 -5.5 60 -3 -3 1024.8 1025.0
18 14.01 С 9 12 км н/о -1.5 -9.4 55 -9 -9 1027.2 1015.4 +4.6
21 14.01 С 11 23 км н/о -6.1 -17.5 40 -16 -16 1029.1 1029.0
00 15.01 СВ 10 30 км ясно -8.2 -20.3 37 -18 -18 1032.0 1020.0
03 15.01 С 8 30 км 9/9 600 м
[]
-8.4 -19.3 41 -17 -17 1033.6 1034.0
06 15.01 С 9 18 км ясно -8.4 -19.0 42 -18 -18 1032.3 1020.2 -8.6
09 15.01 С 5 30 км 9/9
[]
-8.3 -18.9 42 -15 -15 1033.0 1033.0
12 15.01 С 5 30 км ясно -8.1 -17.9 45 -15 -15 1034.0 1021.7
15 15.01 Ю 2 30 км н/о -8.1 -16.5 51 -12 -12 1033.7 1034.0
18 15.01 З 1 30 км н/о -6.7 -15.6 49 -9 -9 1031.7 1019.5 -1.5
21 15.01 ЮЗ 1 30 км н/о -4.9 -15.0 45 -7 -7 1028.6 1029.0
00 16.01 З 3 30 км 9/9
[]
-3.3 -13.5 45 -8 -8 1027.7 1015.6
03 16.01 З 3 30 км ясно +0.1 -12.9 37 -4 +1 1027.2 1027.0
06 16.01 З 6 27 км ясно +0.6 -15.0 30 -5 -3 1024.5 1012.6 -8.6
09 16.01 З 3 30 км ясно -0.6 -12.5 40 -4 -4 1023.7 1024.0
12 16.01 З 2 23 км ясно -0.9 -10.3 49 -4 -4 1024.7 1012.8
15 16.01 З 1 25 км н/о -0.8 -11.5 44 -2 -2 1024.7 1025.0
18 16.01 СЗ 1 29 км н/о -0.8 -11.5 44 -2 -2 1024.2 1012.4 +1.1

 

Местоположение метеостанции Далянь (Ляонин, Китай): широта 38.90 долгота 121.63 высота над уровнем моря 97 м.

В архиве по умолчанию представлена погода в Даляне за последнюю неделю. Архивные данные за месяц целиком и за предыдущие месяцы, начиная с января 2011 года, Вы можете получить, выбрав интересующий диапазон дат из раскрывающегося списка и нажав кнопку "Ввод!".


*Определитесь, кто Вы:
робот инопланетянин человек

Внимание! Время в таблицах - всемирное. Для получения местного времени необходимо прибавить поправку, которая равна 8 ч.

Смотрите также архив погоды в соседних городах и на ближайших метеорологических станциях:

Погода в Чандао (Шаньдун, Китай) (134 км)
Погода в Лункоу (Шаньдун, Китай) (183 км)
Погода в Чэнгшантоу (Шаньдун, Китай) (190 км)
Погода в Инкоу (Ляонин, Китай) (203 км)
Погода в Хайяне (Шаньдун, Китай) (240 км)
Погода в Лаотине (Хэбэй, Китай) (243 км)
Погода в Цзиньчжоу (Ляонин, Китай) (252 км)
Погода в Даньдуне (Ляонин, Китай) (265 км)
Погода в Синыйджу (КНДР) (271 км)
Погода на Пэннёндо (Корея) (281 км)

Пояснения к столбцам:

Ветер - указаны скорость ветра в м/с - средняя за 10 мин, порывы в срок и между сроками (в фигурных скобках) и направление, откуда дует ветер: С - северный, СВ - северо-восточный, В - восточный, ЮВ - юго-восточный, Ю - южный, ЮЗ - юго-западный, З - западный, СЗ - северо-западный.
Видимость - горизонтальная дальность видимости в метрах или километрах. При видимости от 1 до 10 км при отсутствии осадков обычно наблюдается дымка, при ухудшении видимости до 1 км и менее - туман. В сухую погоду видимость может ухудшаться дымом, пылью или мглою.
Явления - указаны атмосферные явления, наблюдавшиеся в срок или в последний час перед сроком; фигурными скобками обозначены явления, наблюдавшиеся между сроками (за 1-3 часа до срока); квадратными скобками обозначены град или гололедные отложения с указанием их диаметра в мм.
Облачность - указаны через наклонную черту общая и нижняя облачность в баллах и высота нижней границы облаков в метрах; квадратными скобками обозначены формы облаков: Ci - перистые, Cs - перисто-слоистые, Cc - перисто-кучевые, Ac - высококучевые, As - высокослоистые, Sc - слоисто-кучевые, Ns - слоисто-дождевые, Cu - кучевые, Cb - кучево-дождевые. Подробнее классификацию облаков см. в Атласе облаков (PDF).
T - Температура воздуха - температура, измеренная на высоте 2 м над землей.
Td - Температура точки росы - температура, при понижении до которой содержащийся в воздухе водяной пар достигнет насыщения.
f - Относительная влажность воздуха - влажноcть воздуха, измеренная на высоте 2 м над землей.
Te - Эффективная температура - температура, которую ощущает одетый по сезону человек в тени. Характеристика душности погоды. При расчете учитывается влияние влажности воздуха и скорости ветра на теплоощущения человека.
Tes - Эффективная температура на солнце - температура, которую ощущает человек, с поправкой на солнечный нагрев. Характеристика знойности погоды. Зависит от высоты солнца над горизонтом, облачности и скорости ветра. Ночью, в пасмурную погоду, а также при ветре 12 м/с и более поправка равна нулю.
P - Атмосферное давление - приведенное к уровню моря атмосферное давление.
Po - Атмосферное давление - измеренное на уровне метеостанции атмосферное давление.
Tmin - Минимальная температура - минимум температуры воздуха на высоте 2 м над землей.
Tmax - Максимальная температура - максимум температуры воздуха на высоте 2 м над землей.
R - Количество осадков - Количество выпавших осадков за период времени, мм. При наведении курсора мыши на число - период времени, за который выпало указанное количество осадков.
R24 - Количество осадков - Количество выпавших осадков за 24 часа, мм.
S - Снежный покров - Высота снежного покрова, см. При наведении курсора мыши на число - состояние снежного покрова и степень покрытия местности в баллах.